User: anonymous   Login
Location: Newark
(28.4500°N, 16.2500°W)
Time: 19:03:26
(UTC+00:00)
Language:

JUGNU - Orbit

View from above orbital plane
View from above orbital plane
View from above satellite
View from above satellite

Ground track
Ground track

The orbit data is extracted from the following two-line orbital elements,

1 37839U 11058B   20220.57096795 +.00000308 +00000-0 +22226-4 0  9998
2 37839 019.9623 332.7710 0018769 231.9242 230.7924 14.12684780456024
Epoch (UTC): 07 August 2020 13:42:11
Eccentricity: 0.0018769
inclination: 19.9623°
perigee height: 836 km
apogee height: 864 km
right ascension of ascending node: 332.7710°
argument of perigee: 231.9242°
revolutions per day: 14.12684780
mean anomaly at epoch: 230.7924°
orbit number at epoch: 45602

The dashed part of the orbit path shows where the satellite is in the earth's shadow,  

DLR